Content
SEND FEEDBACK

Daily
Averages
Monthly
Summary
French Polynesia

PAPEETE, FRENCH POLYNESIA


Home > Oceania > French Polynesia
Elevation: 7 feet     Latitude: 17 33S     Longitude: 149 36W

WEATHER
 
SELECT A DAY
Number of Records: 208,134;   Date Range: 6/30/96 - 7/23/14
 
SHARE

PRINT THIS DATA

[ ← Previous Day ]
WEATHER ALMANAC - JANUARY 28, 2014
[ Next Day → ]
[ °C ]   °F
Weather ElementAverageHighLow
Temperature81.6 °F87.8 °F (12:00 pm)77 °F (3:30 pm)
Dewpoint71.6 °F75.2 °F (12:30 pm)68 °F (3:30 am)
Humidity70.9 %84 % (4:00 pm)58 % (8:00 am)
Barometer29.85 in29.90 in (8:00 pm)29.80 in (1:30 am)
Wind Speed6.7 mph17.3 mph (3:30 pm)
Weather ElementAverage
Visibility7.4 mi
Wind DirectionENE (81.8 °)

Weather ElementTotal
Precipitation---
Cooling Degree Days17.4 (Base 65)
Growing Degree Days32.4 (Base 50)
Averaged from 55 records on January 28, 2014
WEATHER CONDITIONS BREAKOUT
WIND DIRECTION BREAKOUT
WEATHER BY HOUR - JANUARY 28, 2014
[ °C ]   °F
Local TimeTemperatureDewpointHumidityBarometerVisibilityWind DirectionWind SpeedGust SpeedPrecipitationEventsConditions
12:30 AM80.6 °F71.6 °F74 %29.83 in6.2 miENE (60°)6.9 mphRainLight Rain
1:00 AM78.8 °F71.6 °F78 %29.83 in6.2 miENE (60°)4.6 mphRainLight Rain
1:30 AM80.6 °F71.6 °F74 %29.80 in6.2 miENE (70°)5.8 mphMostly Cloudy
2:00 AM80.0 °F71.0 °F68 %29.83 in12.0 miENE (70°)4.6 mphRainLight Rain
2:00 AM78.8 °F71.6 °F78 %29.80 in6.2 miENE (70°)4.6 mphOvercast
2:30 AM80.6 °F71.6 °F74 %29.83 in6.2 miEast (90°)3.5 mphOvercast
3:00 AM78.8 °F69.8 °F74 %29.80 in6.2 miEast (90°)6.9 mphMostly Cloudy
3:30 AM78.8 °F68.0 °F69 %29.80 in6.2 miEast (100°)6.9 mphOvercast
4:00 AM78.8 °F69.8 °F74 %29.80 in6.2 miEast (90°)5.8 mph
4:30 AM78.8 °F69.8 °F74 %29.80 in6.2 miENE (70°)3.5 mphMostly Cloudy
5:00 AM79.0 °F69.0 °F65 %29.81 in37.0 miEast (90°)5.8 mphClear
5:00 AM78.8 °F69.8 °F74 %29.80 in6.2 miEast (90°)5.8 mphMostly Cloudy
5:30 AM80.6 °F69.8 °F70 %29.80 in6.2 miEast (90°)5.8 mph
6:00 AM78.8 °F69.8 °F74 %29.83 in6.2 miEast (80°)4.6 mphMostly Cloudy
6:30 AM80.6 °F71.6 °F74 %29.83 in6.2 miNE (50°)4.6 mphMostly Cloudy
7:00 AM80.6 °F69.8 °F70 %29.83 in6.2 miENE (70°)5.8 mphMostly Cloudy
7:30 AM82.4 °F69.8 °F66 %29.86 in6.2 miENE (70°)5.8 mphMostly Cloudy
8:00 AM84.0 °F72.0 °F58 %29.88 in16.0 miEast (90°)5.8 mphPartly Cloudy
8:00 AM84.2 °F71.6 °F66 %29.86 in6.2 miEast (90°)5.8 mphMostly Cloudy
8:30 AM86.0 °F73.4 °F66 %29.86 in6.2 miENE (60°)6.9 mphMostly Cloudy
9:00 AM84.2 °F71.6 °F66 %29.89 in6.2 miNE (40°)6.9 mphMostly Cloudy
9:30 AM86.0 °F73.4 °F66 %29.89 in6.2 miNE (50°)8.1 mphMostly Cloudy
10:00 AM86.0 °F73.4 °F66 %29.89 in6.2 miNNE (30°)8.1 mphMostly Cloudy
10:30 AM84.2 °F73.4 °F70 %29.89 in6.2 miNNE (20°)13.8 mphMostly Cloudy
11:00 AM85.0 °F72.0 °F58 %29.89 in12.0 miNE (40°)6.9 mphPartly Cloudy
11:00 AM86.0 °F73.4 °F66 %29.89 in6.2 miNE (40°)6.9 mphMostly Cloudy
11:30 AM86.0 °F73.4 °F66 %29.89 in6.2 miNE (50°)10.4 mphMostly Cloudy
12:00 PM87.8 °F71.6 °F58 %29.86 in6.2 miNE (50°)8.1 mphMostly Cloudy
12:30 PM87.8 °F75.2 °F66 %29.86 in6.2 miNNE (30°)9.2 mphMostly Cloudy
1:00 PM86.0 °F73.4 °F66 %29.86 in6.2 miNNE (30°)9.2 mphMostly Cloudy
1:30 PM86.0 °F73.4 °F66 %29.86 in6.2 miNNE (20°)6.9 mphMostly Cloudy
2:00 PM86.0 °F74.0 °F60 %29.84 in12.0 miNNE (20°)8.1 mphPartly Cloudy
2:00 PM86.0 °F73.4 °F66 %29.83 in6.2 miNNE (20°)8.1 mphMostly Cloudy
2:30 PM86.0 °F73.4 °F66 %29.83 in6.2 miNE (40°)6.9 mphMostly Cloudy
3:00 PM82.4 °F71.6 °F70 %29.83 in3.7 miNW (320°)11.5 mphRainLight Rain Showers
3:30 PM77.0 °F71.6 °F83 %29.83 in2.5 miNorth (10°)17.3 mphRainLight Rain Showers
4:00 PM80.6 °F75.2 °F84 %29.83 in6.2 miEast (100°)8.1 mphMostly Cloudy
4:30 PM80.6 °F71.6 °F74 %29.83 in6.2 miEast (90°)11.5 mphMostly Cloudy
5:00 PM82.0 °F71.0 °F61 %29.84 in9.0 miEast (90°)5.8 mphPartly Cloudy
5:00 PM82.4 °F71.6 °F70 %29.83 in6.2 miEast (90°)5.8 mphMostly Cloudy
5:30 PM82.4 °F69.8 °F66 %29.83 in6.2 miENE (70°)6.9 mphScattered Clouds
6:00 PM82.4 °F69.8 °F66 %29.83 in6.2 miENE (70°)4.6 mphScattered Clouds
6:30 PM82.4 °F71.6 °F70 %29.86 in6.2 miSSE (150°)3.5 mphScattered Clouds
7:00 PM80.6 °F73.4 °F79 %29.86 in6.2 miSouth (190°)4.6 mphScattered Clouds
7:30 PM78.8 °F73.4 °F83 %29.86 in6.2 miSouth (180°)2.3 mphPartly Cloudy
8:00 PM79.0 °F72.0 °F73 %29.90 in12.0 miSSE (160°)1.2 mphPartly Cloudy
8:00 PM78.8 °F71.6 °F78 %29.89 in6.2 miVariable1.2 mphScattered Clouds
8:30 PM78.8 °F71.6 °F78 %29.89 in6.2 miNNW (340°)13.8 mphScattered Clouds
9:00 PM78.8 °F71.6 °F78 %29.89 in6.2 miNNW (340°)11.5 mphPartly Cloudy
9:30 PM78.8 °F71.6 °F78 %29.89 in6.2 miEast (80°)4.6 mphPartly Cloudy
10:00 PM77.0 °F71.6 °F83 %29.89 in6.2 miNE (50°)3.5 mphPartly Cloudy
10:30 PM78.8 °F71.6 °F78 %29.89 in6.2 miNE (40°)5.8 mphPartly Cloudy
11:00 PM78.0 °F70.0 °F70 %29.90 in12.0 miNE (50°)5.8 mphScattered Clouds
11:00 PM78.8 °F69.8 °F74 %29.89 in6.2 miNE (50°)5.8 mphPartly Cloudy
11:30 PM77.0 °F69.8 °F78 %29.89 in6.2 miVariable3.5 mphPartly Cloudy
Hourly data recorded from NTAA, located miles away from Papeete, French Polynesia







STORIES FROM OUR PARTNERS